Regional Weather Roundup
Issued by NWS Northern Indiana

Home | Current Version | Previous Version | Graphics & Text | Print | Product List | Glossary On
Versions: 1 2 3 4 5 6 7 8 9 10 11 12 13 14 15 16 17 18 19 20 21 22 23 24 25 26 27 28 29 30 31 32 33 34 35 36 37 38 39 40 41 42 43 44 45 46 47 48 49 50
000
ASUS43 KIWX 290800
RWRIWX

KIWX WEATHER ROUNDUP
NATIONAL WEATHER SERVICE NORTHERN INDIANA
400 AM EDT FRI APR 29 2016

NOTE: "FAIR" INDICATES FEW OR NO CLOUDS BELOW 12,000 FEET WITH NO
SIGNIFICANT WEATHER AND/OR OBSTRUCTIONS TO VISIBILITY.

* THESE STATIONS ARE NOT UNDER NWS QUALITY CONTROL. THEY ALSO MAY NOT
  REPORT WEATHER SUCH AS PRECIPITATION OR FOG.

INZ001>027-290900-
NORTHERN INDIANA

CITY           SKY/WX    TMP DP  RH WIND       PRES   REMARKS
SOUTH BEND     CLOUDY    47  37  68 SE7       30.00S
GOSHEN         CLOUDY    46  38  73 E5        29.99F
ANGOLA*        CLOUDY    45  32  61 E5        30.00S
FORT WAYNE     CLOUDY    46  39  76 CALM      30.01R

$$
INZ028>050-290900-
CENTRAL INDIANA

CITY           SKY/WX    TMP DP  RH WIND       PRES   REMARKS
LAFAYETTE      CLOUDY    52  49  89 CALM      29.97F FOG
KOKOMO*        CLOUDY    48  43  81 E8        29.98S
MUNCIE*        CLOUDY    50  45  83 E6        29.98F
INDIANAPOLIS   CLEAR     51  46  83 W5        29.96F

$$
MIZ043>046-050>051-056>058-064>065-071>073-077>080-290900-
SOUTHWEST LOWER MICHIGAN

CITY           SKY/WX    TMP DP  RH WIND       PRES   REMARKS
BATTLE CREEK   CLOUDY    44  37  76 NE6       30.01F
BENTON HARBOR  CLOUDY    48  39  71 SE5       30.00S
COLDWATER*     CLOUDY    45  38  77 E5        30.00F
HILLSDALE*     CLOUDY    44  38  78 CALM      30.00R
HOLLAND        CLOUDY    42  37  82 E6        30.02F
GRAND RAPIDS   CLOUDY    42  35  76 CALM      30.03S
KALAMAZOO      CLOUDY    46  37  71 CALM      30.01S
STURGIS*       CLOUDY    45  35  68 E5        29.99S
THREE RIVERS*  CLOUDY    46  38  72 CALM      30.01S

$$
OHZ001>008-015>018-024>025-290900-
NORTHWEST OHIO

CITY           SKY/WX    TMP DP  RH WIND       PRES   REMARKS
DEFIANCE       CLOUDY    47  39  74 N5        30.01R
FINDLAY        CLOUDY    47  41  80 N5        29.98R
TOLEDO EXPRESS CLOUDY    46  35  65 NE7       30.00R
TOLEDO METCALF CLOUDY    46  35  65 NE7       30.01R
LIMA           CLOUDY    45  43  93 N6        29.98R

$$
AND FOR LAKE MICHIGAN COASTAL AND OPEN LAKE BUOY OBSERVATIONS

STATION/POSITION TEMP    WIND        PRES    VSBY  WAVE
                 AIR SEA DIR/SP/G                  HT/PER
                 (F)     (DEG/KT/KT) (MB)    (MI)  (FT/S)
CALUMET HARBOR    45     300/  4/  6 1015.7R
MICHIGAN CITY     45     200/  7/  8   N/A
BURNS HARBOR      44     290/  8/ 11 1016.6R
SAINT JOSEPH      48      CALM  /  4 1016.3F
SOUTH LAKE BUOY   41 40   50/  8/ 10 1016.3          2/ 4
4 MI NW BRIDGMAN  49 47   CALM  /  4   N/A           2/ 5

$$
&&




USA.gov is the U.S. government's official web portal to all federal, state and local government web resources and services.